Volver al catálogo

SL-12 R/B

AUX MOTOR

ActivoHEO
NORAD 33473·ROCKET BODY·🇷🇺 Russia

Lanzado Dec 25, 2008 desde Baikonur Cosmodrome

Loading…

Próximos Pases (próximas 24 horas)

TLE

ActualizadoSource: Space-Track

Época: Sep 13, 2026, 00:02 UTC

1 33473U 08067H   26256.00187289  .00000021  00000-0  10468-3 0  9992
2 33473  65.3175 108.7217 5592696 252.9344  41.1594  4.26221405159911

Sigue SL-12 R/B en tiempo real con AllMySat

Download on the App Store